Probability
10 6 1 0 0 0 0 0 0 0 0 0 0 0 0 0 0 0 0 0 0 0 0 0 0 0 0 0 0 0 0 0 0 0 0 0 0 0 0 0 0 0 0 0 0 0 0 0 0
5 3 1 0 0 0 0 0 0 0 0 0 0 0 0 0 0 0 0 0 0 0 0 0 0 0 0 0 0 0 0 0 0 0 0 0 0 0 0 0 0 0 0 0 0 0 0 0 0
1 1 0 0 0 0 0 0 0 0 0 0 0 0 0 0 0 0 0 0 0 0 0 0 0 0 0 0 0 0 0 0 0 0 0 0 0 0 0 0 0 0 0 0 0 0 0 0 0
0 0 0 0 0 0 0 0 0 0 0 0 0 0 0 0 0 0 0 0 0 0 0 0 0 0 0 0 0 0 0 0 0 0 0 0 0 0 0 0 0 0 0 0 0 0 0 0 0
0 0 0 0 0 0 0 0 0 0 0 0 0 0 0 0 0 0 0 0 0 0 0 0 0 0 0 0 0 0 0 0 1 1 0 0 0 0 0 0 0 0 0 0 0 0 0 0 0
0 0 0 0 0 0 0 0 0 0 0 0 0 0 0 0 0 0 0 0 0 0 0 0 0 0 0 0 0 0 0 0 1 1 1 1 1 1 0 0 0 0 0 0 0 0 0 0 0
0 0 0 0 0 0 0 0 0 0 0 0 0 0 0 0 0 0 0 0 0 0 0 0 0 0 0 0 0 0 0 0 1 1 2 2 2 2 1 0 0 0 0 0 0 0 0 0 0
0 0 0 0 0 0 0 0 0 0 0 0 0 0 0 0 0 0 0 0 0 0 0 0 1 0 0 0 0 1 1 1 1 1 2 2 3 3 1 1 1 0 0 0 0 0 0 0 0
0 0 0 0 0 0 0 0 0 0 0 0 0 0 0 0 0 0 0 0 0 0 0 0 0 0 1 1 1 2 2 2 3 3 2 2 2 2 2 2 2 1 0 0 0 0 0 0 0
0 0 0 0 0 0 0 0 0 0 0 0 0 0 0 0 0 0 0 0 0 0 0 0 0 1 2 2 2 3 3 3 3 3 3 2 1 1 1 1 2 2 1 1 1 0 0 0 0
0 0 0 0 0 0 0 0 0 0 0 0 0 0 0 0 0 0 0 0 0 0 0 0 0 1 2 2 2 2 3 3 2 2 3 2 1 0 0 0 1 2 2 2 2 1 0 0 0
0 0 0 1 0 0 0 0 1 1 1 0 0 0 0 0 0 0 0 0 0 0 0 0 0 0 1 1 1 1 3 3 2 1 2 1 0 0 0 0 0 1 3 3 3 2 0 0 0
0 0 0 0 0 0 0 0 1 1 1 0 0 0 0 0 0 0 0 0 0 0 0 0 0 0 0 0 0 1 3 3 2 2 2 2 1 1 1 1 0 1 3 3 2 1 0 0 0
0 0 0 0 0 0 0 0 0 0 0 0 0 0 0 0 0 0 0 0 0 0 0 0 0 0 0 0 0 1 1 2 2 2 4 5 5 4 4 2 0 0 1 1 1 0 0 0 0
0 0 0 0 0 0 0 0 0 0 0 0 0 0 0 0 0 0 0 0 0 0 0 0 0 0 0 0 0 0 0 0 1 2 4 8 8 7 6 3 1 0 0 0 0 0 0 0 0
0 0 0 0 0 0 0 0 0 0 0 0 0 0 0 0 0 0 0 0 0 0 0 0 0 0 0 0 0 0 0 1 2 2 4 7 8 7 6 4 2 1 2 1 0 0 0 0 0
0 0 0 0 0 0 0 0 0 0 0 0 0 0 0 0 0 0 0 0 0 0 0 0 0 0 0 0 0 0 0 1 2 2 3 4 6 6 4 3 4 3 3 2 0 0 0 0 0
0 0 0 0 0 0 0 0 0 0 0 0 0 0 0 0 0 0 0 0 0 0 0 0 0 0 0 0 0 0 0 1 1 1 2 3 4 4 3 3 5 6 4 2 1 0 0 0 0
0 0 0 0 0 0 0 0 0 0 0 0 0 0 0 0 0 0 0 0 0 0 0 0 0 0 0 0 0 0 0 0 1 2 3 3 3 3 3 4 6 8 7 3 1 0 0 0 0
0 0 0 0 0 0 0 0 0 0 0 0 0 0 0 0 0 0 0 0 0 0 0 0 0 0 0 0 0 0 0 0 1 2 3 3 3 3 3 4 6 9 9 5 2 0 0 0 0
0 0 0 0 0 0 0 0 0 0 0 0 0 0 0 0 0 0 0 0 0 0 0 0 0 0 0 0 0 0 0 0 0 1 1 2 2 3 3 4 5 8 10 7 3 0 0 0 0
0 0 0 0 0 0 0 0 0 0 0 0 0 0 0 0 0 0 0 0 0 0 0 0 0 0 0 0 0 0 0 0 0 0 0 1 1 1 3 5 5 6 8 7 3 1 0 0 0
0 0 0 0 0 0 0 0 0 0 0 0 0 0 0 0 0 0 0 0 0 0 0 0 0 0 0 0 0 0 0 0 0 0 0 0 0 0 2 4 5 5 5 4 3 2 1 0 0
0 0 0 0 0 0 0 0 0 0 0 0 0 0 0 0 0 0 0 0 0 0 0 0 0 0 0 0 0 0 0 0 0 0 0 0 0 0 0 2 3 3 3 4 5 5 3 1 0
0 0 0 0 0 0 0 0 0 0 0 0 0 0 0 0 0 0 0 0 0 0 0 0 0 0 0 0 0 0 0 0 0 0 0 0 1 0 0 0 1 1 2 4 6 7 5 2 1
0 0 0 0 0 0 0 0 0 0 0 0 0 0 0 0 0 0 0 0 0 0 0 0 0 0 0 0 0 0 0 0 0 0 0 0 0 0 0 0 0 0 1 2 5 7 7 5 3
0 0 0 0 0 0 0 0 0 0 0 0 0 0 0 0 0 0 0 0 0 0 0 0 0 0 0 0 0 0 0 0 0 0 0 0 0 0 0 0 0 0 0 1 3 5 6 6 5
0 0 0 0 0 0 0 0 0 0 0 0 0 0 0 0 0 0 0 0 0 0 0 0 0 0 0 0 0 0 0 0 0 0 0 0 0 0 0 0 0 0 0 1 3 5 5 5 4
0 0 0 0 0 0 0 0 0 0 0 0 0 0 0 0 0 0 0 0 0 0 0 0 0 0 0 0 0 0 0 0 0 0 0 0 0 0 0 0 0 0 0 1 2 3 4 4 4
0 0 0 0 0 0 0 0 0 0 0 0 0 0 0 0 0 0 0 0 0 0 0 0 0 0 0 0 0 0 0 0 0 0 0 0 0 0 0 0 0 0 0 1 1 1 2 4 4
Wind_Speed
6 3 2 1 4 5 4 3 4 6 6 7 11 11 8 6 5 5 2 10 13 11 8 9 11 11 10 10 9 9 8 8 8 7 7 7 6 6 6 6 5 5 5 5 5 5 5 5 5
2 3 2 3 5 4 3 4 8 7 7 8 11 10 8 7 7 7 5 9 13 11 8 8 11 11 10 10 9 9 8 8 7 7 6 6 6 6 5 5 5 5 5 5 4 4 5 4 4
3 1 2 4 4 4 3 3 7 9 9 6 6 7 6 4 5 3 7 11 11 10 8 9 12 11 10 10 9 8 8 7 7 7 6 6 6 6 5 5 5 4 4 4 4 3 4 3 2
2 2 4 5 6 4 4 2 6 6 8 8 7 7 5 6 4 5 10 11 11 9 8 9 13 12 11 10 9 8 8 7 7 7 7 6 6 6 5 5 4 4 4 4 4 3 3 2 2
3 4 5 5 5 5 5 6 8 10 6 9 9 7 5 6 7 9 9 9 9 8 7 9 13 12 11 10 9 9 8 8 8 7 7 7 7 6 5 5 5 5 4 4 4 4 3 3 2
4 5 4 4 4 5 5 6 8 11 8 7 7 6 4 5 7 6 6 6 6 7 6 6 11 12 11 10 10 9 9 9 9 8 8 7 7 7 7 6 5 5 5 5 4 4 4 4 3
5 4 3 3 3 4 2 3 7 6 8 7 5 4 3 6 5 4 5 6 5 4 3 2 3 6 9 10 11 11 11 11 10 10 9 9 8 8 8 8 7 7 6 6 6 6 5 5 5
5 5 3 2 2 1 4 4 7 8 6 5 6 5 3 4 4 5 6 6 5 4 3 1 0 1 2 5 9 11 12 12 12 11 11 10 10 10 10 9 9 9 8 8 7 7 7 7 6
6 6 2 3 4 1 3 3 6 7 8 7 6 5 2 3 5 7 7 6 5 4 3 2 1 1 2 4 6 8 10 11 11 10 12 10 5 5 6 9 11 11 11 10 9 9 8 8 7
6 4 3 3 4 5 4 6 5 5 7 6 6 6 5 6 7 8 8 7 6 5 4 3 2 2 2 3 3 3 4 4 5 4 6 5 4 5 7 9 13 14 13 12 11 10 9 7 3
5 5 3 3 6 6 6 6 5 5 6 4 3 4 5 7 7 8 7 5 5 4 5 4 3 3 2 2 2 2 2 3 4 5 6 5 4 4 5 3 6 8 10 6 6 6 4 4 3
6 4 4 4 5 5 5 5 6 6 3 1 2 3 4 6 6 6 5 5 4 5 5 5 4 3 3 2 2 2 2 2 3 5 6 5 3 4 4 4 4 4 3 4 4 3 4 5 5
6 6 7 10 13 10 11 8 6 3 1 2 3 5 5 6 5 5 4 5 5 5 5 5 4 4 3 3 3 2 2 3 3 3 4 5 4 4 4 4 4 5 4 4 4 4 5 5 6
7 9 10 10 10 7 11 6 5 1 1 3 4 4 5 6 5 6 6 6 6 6 7 6 6 4 4 3 3 3 3 3 3 3 5 5 4 4 4 4 4 5 5 5 5 6 5 5 5
9 9 5 3 5 6 9 7 2 1 3 5 4 4 6 5 5 5 5 5 6 6 6 7 6 5 5 4 4 3 3 3 3 3 4 5 5 5 4 4 5 5 5 6 5 5 4 4 4
5 5 2 2 5 6 7 4 1 2 6 5 4 4 5 5 5 5 5 5 6 6 7 7 8 7 6 5 5 4 4 3 3 3 3 4 5 5 4 4 4 4 3 4 4 4 3 3 3
2 2 2 1 3 4 6 4 3 3 6 5 4 4 5 5 6 5 6 6 6 6 6 7 7 7 7 6 5 4 4 4 3 3 3 4 4 5 4 5 4 4 3 3 4 3 3 3 2
2 3 2 3 2 5 6 5 3 3 6 5 4 4 4 4 4 5 6 6 6 6 7 7 7 7 7 5 4 4 4 4 3 3 3 4 4 5 5 4 5 5 4 4 4 3 3 2 2
3 4 3 2 4 5 6 6 4 3 4 4 4 4 4 3 3 5 6 6 7 7 7 7 7 7 6 4 4 4 4 4 4 3 4 4 4 4 4 4 5 5 5 6 6 4 3 2 2
7 7 3 1 2 5 6 4 2 2 3 4 3 2 3 4 5 6 6 6 7 7 7 7 7 7 6 4 4 3 4 4 4 3 4 4 4 4 4 5 5 5 5 5 6 5 3 2 3
5 4 3 3 1 4 7 2 1 1 3 3 2 1 2 3 4 5 6 6 6 7 7 7 7 8 7 6 4 4 3 3 3 4 3 4 4 4 4 4 4 5 6 6 7 6 6 4 3
1 1 3 3 3 2 5 3 4 2 1 1 1 1 3 3 3 4 5 6 7 7 7 7 7 7 7 6 5 5 4 4 4 4 4 5 4 4 4 3 4 4 4 5 6 6 5 5 4
3 2 1 1 2 0 1 4 4 2 1 1 1 1 2 3 3 4 4 5 6 7 7 7 7 7 8 7 6 5 4 4 4 4 5 4 4 4 4 3 3 4 4 5 6 5 6 5 5
1 5 6 5 5 2 3 5 4 3 4 2 1 1 2 3 3 4 4 5 5 6 6 7 7 7 8 8 7 6 6 6 5 5 5 4 3 3 3 3 3 3 3 4 5 5 7 6 6
6 6 5 6 4 4 1 3 4 4 4 4 3 1 2 2 3 4 5 6 6 7 7 7 8 8 8 8 7 7 7 6 5 5 5 4 3 3 3 3 3 3 3 4 4 5 5 6 7
1 6 6 2 3 4 3 0 4 3 3 3 3 1 1 2 2 3 4 5 5 6 7 7 7 7 8 8 8 7 7 5 4 5 4 4 3 3 4 3 2 3 3 4 4 4 5 5 6
1 1 5 5 0 1 2 1 3 1 2 2 2 1 2 2 2 3 4 4 5 6 6 6 6 7 8 8 7 7 7 6 6 6 5 4 4 3 4 2 1 1 2 3 4 3 4 4 5
1 2 5 3 1 2 3 3 5 5 5 3 3 2 2 2 3 3 4 4 4 4 5 5 5 6 6 7 6 6 7 7 7 6 7 6 6 5 5 4 3 2 1 1 2 2 3 4 3
3 3 4 3 4 4 3 6 5 8 7 6 5 4 3 2 3 3 4 4 4 4 4 4 5 5 6 7 6 7 7 7 7 6 7 7 6 6 6 5 4 4 3 2 1 1 2 3 3
2 3 4 3 1 2 3 7 3 6 6 6 5 4 3 3 3 4 4 4 4 4 4 4 4 5 5 5 6 7 7 7 7 7 7 7 7 6 6 5 5 4 4 3 2 1 1 3 3
Wind_Direction
189 163 124 103 54 50 55 24 61 61 60 60 72 77 78 58 83 122 133 144 137 146 150 148 146 143 141 140 140 140 140 138 137 136 135 133 130 128 127 122 115 111 109 108 103 102 98 91 81
140 144 150 62 76 71 46 51 58 68 116 104 76 75 71 66 74 94 113 142 142 145 148 151 150 147 146 145 144 144 145 145 145 145 145 143 141 140 138 135 128 123 122 121 118 112 107 100 89
140 175 87 61 74 105 85 61 81 73 66 72 73 50 55 49 64 101 147 148 147 149 150 155 156 155 154 152 152 151 151 152 153 153 155 155 153 153 154 150 145 137 132 131 129 124 120 114 104
116 56 43 65 63 41 68 62 86 75 47 43 82 64 53 30 30 119 143 150 149 151 154 161 161 162 162 162 161 162 163 165 167 169 169 169 168 166 166 167 162 155 150 149 149 149 144 139 138
79 70 53 56 53 28 32 39 67 71 62 56 74 85 55 21 68 114 134 144 146 151 160 168 167 169 170 172 174 176 178 180 184 185 185 185 185 183 181 181 178 174 172 170 168 172 172 177 194
65 68 72 65 48 32 13 23 57 69 70 52 58 85 65 28 65 100 118 122 134 148 159 172 176 177 180 183 187 190 192 195 197 198 198 198 197 196 195 195 193 190 188 188 189 192 196 207 220
104 94 95 116 87 57 16 29 51 64 54 24 9 74 54 14 27 72 84 90 91 102 129 160 185 187 192 196 199 202 203 206 207 208 207 205 206 207 207 206 206 204 201 203 206 207 212 221 232
116 98 84 85 93 36 334 46 58 50 54 31 31 60 26 338 11 60 66 66 70 66 65 70 97 218 223 219 217 216 215 214 214 214 213 213 214 215 216 214 214 212 211 213 215 216 221 229 237
84 77 122 178 169 160 345 66 66 52 68 54 49 58 25 355 35 53 50 44 45 43 34 32 32 264 244 239 232 228 226 225 223 220 219 216 215 219 224 224 220 218 218 218 220 223 230 235 243
79 105 183 188 148 126 66 56 85 68 52 44 42 36 33 30 40 48 41 31 25 18 14 9 345 317 288 264 257 245 238 236 230 223 223 214 206 215 226 231 229 225 222 221 223 228 235 241 246
85 131 150 110 129 127 101 63 41 96 55 34 38 26 31 40 39 45 38 28 15 7 8 1 351 340 317 295 289 265 251 242 235 228 225 219 212 215 226 227 235 230 224 220 224 229 230 235 238
93 67 108 110 122 94 90 97 68 63 104 113 79 59 47 42 39 38 29 14 360 0 352 346 346 346 332 313 298 273 259 249 236 227 223 215 215 215 219 220 214 210 204 201 212 221 229 237 241
107 114 92 97 92 94 96 94 98 80 108 76 56 51 45 47 39 28 23 15 4 356 345 336 330 337 334 326 311 305 279 264 253 245 229 214 211 217 219 224 212 205 197 199 209 219 227 235 239
129 119 120 118 109 104 100 89 85 95 109 91 69 53 46 52 46 32 21 11 2 355 346 339 334 340 334 323 308 294 281 271 259 243 238 225 212 212 210 218 214 210 205 204 206 212 219 227 230
109 107 102 120 118 135 104 63 62 159 93 74 60 54 51 50 46 36 19 8 360 351 348 345 341 346 334 321 310 307 288 283 270 257 249 233 218 215 208 207 214 214 211 210 207 211 218 228 226
96 101 134 209 160 161 107 107 238 117 99 80 65 59 52 40 35 24 14 6 359 354 348 343 345 340 328 318 308 301 295 287 277 272 265 246 226 218 214 209 209 201 200 206 204 198 196 215 208
83 150 193 207 166 133 115 146 202 125 108 91 70 60 51 34 23 13 8 2 356 353 346 341 336 333 326 319 310 304 298 288 282 280 272 262 247 226 212 215 212 191 190 203 210 197 186 188 191
222 206 181 182 163 113 118 147 169 139 109 99 79 61 45 32 6 355 1 360 354 349 346 341 338 334 328 323 319 314 309 297 288 278 270 264 255 241 221 221 212 191 187 199 198 189 186 180 178
134 124 134 166 148 116 134 145 165 144 103 92 74 54 31 8 348 355 358 356 353 350 348 343 341 336 335 328 324 316 312 303 296 285 276 269 260 247 230 230 216 202 198 200 193 183 186 185 147
83 90 90 91 156 117 125 130 158 140 120 120 105 65 16 359 353 350 355 356 349 345 343 341 338 331 328 317 301 283 287 286 282 287 289 275 267 254 244 226 216 208 203 201 199 183 173 181 159
73 117 155 188 80 92 109 75 126 85 96 97 93 65 8 7 351 345 350 347 345 344 339 338 330 329 326 323 317 316 312 307 311 309 299 288 278 264 251 233 219 211 202 204 204 190 177 177 178
124 185 165 160 126 215 154 170 229 193 111 70 46 10 352 348 349 343 345 342 338 333 332 330 329 328 328 329 330 328 322 307 292 289 285 291 284 273 257 238 223 215 207 206 207 194 183 167 172
220 251 264 199 159 315 114 134 245 181 198 251 264 317 339 339 352 348 339 329 328 331 335 333 332 332 333 334 331 326 321 305 300 303 301 299 291 276 266 249 229 220 213 212 210 197 186 178 175
20 24 25 46 70 336 250 151 232 224 205 209 246 321 325 334 347 340 332 333 332 334 336 336 337 333 335 338 339 337 331 327 331 328 319 313 304 288 279 260 237 223 214 211 211 202 196 192 184
55 64 27 9 14 267 331 114 230 218 189 175 178 245 303 324 341 334 337 339 335 336 336 336 340 338 339 342 343 340 335 334 334 324 318 320 317 310 296 275 241 225 218 211 205 201 201 197 190
28 127 140 191 240 284 6 137 248 212 173 156 168 198 321 329 323 325 323 326 327 331 332 335 341 339 340 344 343 340 340 338 333 328 325 321 312 299 297 294 265 235 219 212 202 202 204 200 199
56 106 167 143 226 347 314 300 299 204 171 174 180 186 318 315 310 309 314 319 322 327 326 329 336 338 340 343 342 346 348 348 343 340 338 330 328 328 334 329 299 253 220 208 199 201 200 196 199
133 136 72 83 80 319 293 245 232 209 209 197 194 214 268 294 305 304 308 307 311 318 320 331 338 335 335 345 350 353 348 350 352 357 0 357 354 357 359 3 9 10 351 202 194 196 196 184 188
28 51 83 109 147 154 274 270 224 192 190 191 204 214 232 256 268 277 289 296 305 321 330 340 343 343 346 349 349 352 353 352 357 5 4 2 5 10 15 15 19 25 18 26 71 201 179 171 176
142 144 131 130 266 164 199 268 252 177 183 185 197 211 222 241 250 262 281 301 317 323 328 339 342 346 344 347 353 356 357 0 5 6 2 5 9 11 17 22 23 24 21 31 46 43 133 153 164